| time (UTC) | temp F | wind direction | speed knots | gust knots | rain 1hr in | rain 24hr in | rain mn in | humidity % | barometer mb |
| 20260507091513 | 43 | 42 | 0.9 | 2.6 | 0.00 | 0.01 | 0.00 | 88 | 1017.8 |
| 20260507090014 | 43 | 42 | 0.0 | 0.9 | 0.00 | 0.01 | 0.00 | 89 | 1017.9 |
| 20260507084510 | 43 | 42 | 0.0 | 1.7 | 0.00 | 0.01 | 0.00 | 89 | 1018.1 |
| 20260507083019 | 42 | 42 | 0.0 | 1.7 | 0.00 | 0.01 | 0.00 | 89 | 1017.9 |
| 20260507081511 | 41 | 42 | 0.0 | 2.6 | 0.00 | 0.01 | 0.00 | 88 | 1017.8 |
| 20260507080007 | 41 | 40 | 0.0 | 0.9 | 0.00 | 0.01 | 0.00 | 87 | 1018.0 |
| 20260507074515 | 41 | 40 | 0.0 | 0.9 | 0.00 | 0.01 | 0.00 | 87 | 1017.8 |
| 20260507073005 | 41 | 40 | 0.0 | 0.9 | 0.00 | 0.01 | 0.00 | 87 | 1018.0 |
| 20260507071504 | 41 | 40 | 0.0 | 0.9 | 0.00 | 0.01 | 0.00 | 87 | 1018.2 |
| 20260507064559 | 41 | 40 | 0.0 | 0.0 | 0.00 | 0.01 | 0.00 | 85 | 1018.6 |
| 20260507063059 | 42 | 40 | 0.0 | 1.7 | 0.00 | 0.01 | 0.00 | 85 | 1018.8 |
| 20260507061555 | 42 | 40 | 0.0 | 0.0 | 0.00 | 0.01 | 0.00 | 85 | 1018.6 |
| 20260507060054 | 42 | 40 | 0.0 | 0.9 | 0.00 | 0.01 | 0.00 | 85 | 1018.8 |
| 20260507054603 | 42 | 40 | 0.0 | 1.7 | 0.00 | 0.01 | 0.00 | 85 | 1018.6 |
| 20260507053055 | 42 | 40 | 0.0 | 0.9 | 0.00 | 0.01 | 0.00 | 84 | 1018.6 |
| 20260507051549 | 43 | 40 | 0.0 | 0.9 | 0.00 | 0.01 | 0.00 | 83 | 1018.6 |
| 20260507050047 | 43 | 40 | 0.0 | 0.9 | 0.00 | 0.01 | 0.00 | 82 | 1018.5 |
| 20260507044546 | 43 | 40 | 0.0 | 0.9 | 0.00 | 0.01 | 0.01 | 82 | 1018.6 |
| 20260507043045 | 43 | 40 | 0.0 | 0.9 | 0.00 | 0.01 | 0.01 | 83 | 1018.5 |
| 20260507041546 | 43 | 40 | 0.0 | 0.0 | 0.00 | 0.01 | 0.01 | 83 | 1018.4 |
| 20260507040057 | 43 | 40 | 0.0 | 0.0 | 0.00 | 0.01 | 0.01 | 82 | 1018.5 |
| 20260507034554 | 44 | 40 | 0.0 | 0.9 | 0.00 | 0.03 | 0.01 | 81 | 1018.4 |
| 20260507033045 | 44 | 40 | 0.0 | 0.0 | 0.00 | 0.03 | 0.01 | 80 | 1018.4 |
| 20260507031544 | 45 | 40 | 0.0 | 0.9 | 0.00 | 0.03 | 0.01 | 79 | 1018.3 |
| 20260507030043 | 45 | 40 | 0.0 | 0.0 | 0.00 | 0.03 | 0.01 | 78 | 1018.3 |
| 20260507024543 | 46 | 40 | 0.0 | 0.0 | 0.00 | 0.09 | 0.01 | 76 | 1018.3 |
| 20260507023042 | 46 | 39 | 0.0 | 0.0 | 0.00 | 0.09 | 0.01 | 73 | 1018.1 |
| 20260507021545 | 47 | 39 | 0.0 | 0.0 | 0.00 | 0.09 | 0.01 | 73 | 1018.1 |
| 20260507020045 | 49 | 39 | 0.0 | 0.9 | 0.00 | 0.09 | 0.01 | 72 | 1017.7 |
| 20260507014542 | 50 | 39 | 0.0 | 0.0 | 0.00 | 0.10 | 0.01 | 68 | 1017.6 |
| 20260507013040 | 51 | 39 | 0.0 | 0.0 | 0.00 | 0.10 | 0.01 | 62 | 1017.5 |
| 20260507011546 | 54 | 39 | 0.0 | 0.9 | 0.00 | 0.10 | 0.01 | 59 | 1017.4 |
| 20260507010039 | 55 | 39 | 0.0 | 1.7 | 0.00 | 0.10 | 0.01 | 57 | 1017.3 |
| 20260507004541 | 56 | 38 | 0.0 | 4.3 | 0.00 | 0.10 | 0.01 | 56 | 1017.2 |
| 20260507003037 | 57 | 33 | 1.7 | 4.3 | 0.00 | 0.10 | 0.01 | 50 | 1017.1 |
| 20260507001548 | 58 | 36 | 1.7 | 7.8 | 0.00 | 0.10 | 0.01 | 46 | 1016.8 |
| 20260507000040 | 59 | 41 | 2.6 | 12.2 | 0.00 | 0.10 | 0.01 | 50 | 1016.7 |
| 20260506234543 | 59 | 346 | 0.9 | 10.4 | 0.00 | 0.10 | 0.01 | 48 | 1016.6 |
| 20260506233035 | 59 | 36 | 1.7 | 11.3 | 0.00 | 0.10 | 0.01 | 51 | 1016.6 |
| 20260506231537 | 60 | 343 | 2.6 | 10.4 | 0.00 | 0.10 | 0.01 | 47 | 1016.4 |
| 20260506230034 | 60 | 16 | 3.5 | 12.2 | 0.00 | 0.10 | 0.01 | 45 | 1016.6 |
| 20260506224534 | 61 | 27 | 5.2 | 9.6 | 0.00 | 0.10 | 0.01 | 45 | 1016.4 |
| 20260506223032 | 61 | 33 | 4.3 | 12.2 | 0.00 | 0.10 | 0.01 | 46 | 1016.4 |
| 20260506221532 | 61 | 42 | 1.7 | 9.6 | 0.00 | 0.10 | 0.01 | 47 | 1016.6 |
| 20260506220032 | 61 | 27 | 4.3 | 9.6 | 0.00 | 0.10 | 0.01 | 45 | 1016.6 |
| 20260506214531 | 61 | 318 | 3.5 | 9.6 | 0.00 | 0.10 | 0.01 | 49 | 1016.8 |
| 20260506213030 | 61 | 47 | 2.6 | 11.3 | 0.00 | 0.10 | 0.01 | 46 | 1016.6 |
| 20260506211531 | 61 | 54 | 2.6 | 7.8 | 0.00 | 0.10 | 0.01 | 47 | 1016.8 |
| 20260506210030 | 62 | 71 | 1.7 | 10.4 | 0.00 | 0.10 | 0.01 | 52 | 1016.9 |
| 20260506204533 | 61 | 48 | 2.6 | 11.3 | 0.00 | 0.10 | 0.01 | 48 | 1016.9 |
| 20260506203034 | 62 | 5 | 2.6 | 11.3 | 0.00 | 0.10 | 0.01 | 52 | 1017.1 |
| 20260506201527 | 61 | 252 | 4.3 | 11.3 | 0.00 | 0.10 | 0.01 | 46 | 1017.2 |
| 20260506200026 | 61 | 34 | 2.6 | 9.6 | 0.00 | 0.10 | 0.01 | 50 | 1017.4 |
| 20260506194525 | 60 | 333 | 3.5 | 11.3 | 0.00 | 0.10 | 0.01 | 49 | 1017.6 |
| 20260506193024 | 60 | 314 | 3.5 | 8.7 | 0.00 | 0.10 | 0.01 | 53 | 1017.7 |
| 20260506191523 | 60 | 13 | 4.3 | 9.6 | 0.00 | 0.10 | 0.01 | 47 | 1018.1 |
| 20260506190032 | 61 | 28 | 2.6 | 10.4 | 0.00 | 0.10 | 0.01 | 56 | 1018.2 |
| 20260506184522 | 60 | 44 | 4.3 | 10.4 | 0.00 | 0.10 | 0.01 | 49 | 1018.5 |
| 20260506183019 | 60 | 302 | 2.6 | 7.8 | 0.01 | 0.10 | 0.01 | 61 | 1018.2 |
| 20260506181520 | 58 | 28 | 2.6 | 13.0 | 0.01 | 0.10 | 0.01 | 55 | 1018.6 |
| 20260506180018 | 60 | 331 | 1.7 | 7.8 | 0.01 | 0.10 | 0.01 | 57 | 1018.8 |
| 20260506174518 | 55 | 320 | 4.3 | 11.3 | 0.01 | 0.10 | 0.01 | 57 | 1018.9 |
| 20260506173016 | 56 | 9 | 1.7 | 10.4 | 0.00 | 0.09 | 0.00 | 57 | 1019.1 |
| 20260506171517 | 58 | 5 | 5.2 | 12.2 | 0.00 | 0.09 | 0.00 | 55 | 1019.3 |
| 20260506170014 | 57 | 360 | 2.6 | 11.3 | 0.00 | 0.09 | 0.00 | 57 | 1019.2 |
| 20260506164514 | 58 | 24 | 0.9 | 9.6 | 0.00 | 0.09 | 0.00 | 62 | 1019.1 |
| 20260506163012 | 56 | 338 | 2.6 | 8.7 | 0.00 | 0.09 | 0.00 | 61 | 1018.6 |
| 20260506161507 | 55 | 47 | 2.6 | 6.1 | 0.00 | 0.09 | 0.00 | 60 | 1018.3 |
| 20260506160005 | 55 | 19 | 3.5 | 7.8 | 0.00 | 0.09 | 0.00 | 63 | 1018.0 |
| 20260506154516 | 55 | 53 | 1.7 | 6.1 | 0.00 | 0.09 | 0.00 | 66 | 1018.0 |
| 20260506153134 | 54 | 36 | 2.6 | 7.8 | 0.00 | 0.09 | 0.00 | 64 | 1018.2 |
| 20260506151559 | 53 | 50 | 2.6 | 5.2 | 0.00 | 0.09 | 0.00 | 66 | 1018.1 |
| 20260506150056 | 52 | 49 | 1.7 | 5.2 | 0.00 | 0.09 | 0.00 | 67 | 1017.7 |
| 20260506144554 | 51 | 54 | 2.6 | 5.2 | 0.00 | 0.09 | 0.00 | 70 | 1017.8 |
| 20260506143051 | 51 | 56 | 1.7 | 3.5 | 0.00 | 0.09 | 0.00 | 72 | 1017.9 |
| 20260506141549 | 50 | 56 | 0.9 | 4.3 | 0.00 | 0.09 | 0.00 | 76 | 1017.9 |
| 20260506140046 | 49 | 57 | 0.9 | 4.3 | 0.00 | 0.09 | 0.00 | 79 | 1018.1 |
| 20260506134542 | 48 | 59 | 0.0 | 6.1 | 0.00 | 0.09 | 0.00 | 83 | 1017.8 |
| 20260506133042 | 47 | 60 | 1.7 | 4.3 | 0.00 | 0.09 | 0.00 | 84 | 1017.7 |
| 20260506131537 | 46 | 61 | 0.0 | 4.3 | 0.00 | 0.09 | 0.00 | 88 | 1017.5 |
| 20260506130033 | 45 | 140 | 0.9 | 2.6 | 0.00 | 0.09 | 0.00 | 91 | 1017.5 |
| 20260506124531 | 44 | 140 | 0.9 | 6.1 | 0.00 | 0.09 | 0.00 | 91 | 1017.4 |
| 20260506123029 | 44 | 43 | 1.7 | 4.3 | 0.00 | 0.09 | 0.00 | 92 | 1017.4 |
| 20260506121527 | 43 | 51 | 0.9 | 3.5 | 0.00 | 0.09 | 0.00 | 92 | 1017.0 |
| 20260506120026 | 43 | 34 | 0.9 | 5.2 | 0.00 | 0.09 | 0.00 | 93 | 1017.0 |
| 20260506114525 | 43 | 26 | 0.9 | 3.5 | 0.00 | 0.09 | 0.00 | 93 | 1017.0 |
| 20260506113025 | 43 | 360 | 0.9 | 5.2 | 0.00 | 0.09 | 0.00 | 93 | 1017.0 |
| 20260506111529 | 43 | 17 | 0.9 | 7.0 | 0.00 | 0.09 | 0.00 | 93 | 1016.9 |
| 20260506110023 | 43 | 5 | 1.7 | 7.8 | 0.00 | 0.09 | 0.00 | 94 | 1017.1 |
| 20260506104521 | 43 | 347 | 1.7 | 4.3 | 0.00 | 0.09 | 0.00 | 94 | 1016.8 |
| 20260506103017 | 43 | 24 | 1.7 | 5.2 | 0.00 | 0.09 | 0.00 | 94 | 1016.2 |
| 20260506101517 | 44 | 22 | 0.9 | 4.3 | 0.00 | 0.09 | 0.00 | 94 | 1016.2 |
| 20260506100015 | 44 | 344 | 0.9 | 3.5 | 0.00 | 0.09 | 0.00 | 94 | 1015.8 |
| 20260506094513 | 44 | 22 | 1.7 | 7.0 | 0.00 | 0.09 | 0.00 | 94 | 1015.7 |
| 20260506093010 | 44 | 350 | 1.7 | 5.2 | 0.00 | 0.09 | 0.00 | 94 | 1015.3 |